TimeAKDT,TemperatureF,Dew PointF,Humidity,Sea Level PressureIn,VisibilityMPH,Wind Direction,Wind SpeedMPH,Gust SpeedMPH,PrecipitationIn,Events,Conditions,WindDirDegrees,DateUTC
12:53 AM,48.9,44.1,83,29.22,10.0,Variable,3.5,-,N/A,,Partly Cloudy,0,2013-09-23 08:53:00
2:53 AM,48.9,43.0,80,29.25,10.0,SE,3.5,-,N/A,,Clear,140,2013-09-23 10:53:00
3:53 AM,46.9,43.0,86,29.28,10.0,Calm,Calm,-,N/A,,Clear,0,2013-09-23 11:53:00
4:53 AM,48.0,43.0,83,29.29,10.0,Variable,3.5,-,N/A,,Scattered Clouds,0,2013-09-23 12:53:00
5:53 AM,48.9,43.0,80,29.30,10.0,Calm,Calm,-,N/A,,Overcast,0,2013-09-23 13:53:00
6:53 AM,48.9,44.1,83,29.32,10.0,Calm,Calm,-,0.00,,Overcast,0,2013-09-23 14:53:00
7:53 AM,48.9,45.0,86,29.35,10.0,Variable,3.5,-,N/A,,Overcast,0,2013-09-23 15:53:00
8:22 AM,48.2,44.6,87,29.36,10.0,South,3.5,-,N/A,,Overcast,180,2013-09-23 16:22:00
8:53 AM,48.9,46.0,90,29.37,10.0,Variable,3.5,-,0.00,,Overcast,0,2013-09-23 16:53:00
9:53 AM,48.9,46.0,90,29.39,10.0,SSW,3.5,-,0.01,Rain,Light Rain,210,2013-09-23 17:53:00
10:53 AM,50.0,48.0,93,29.42,8.0,Variable,4.6,-,0.05,Rain,Light Rain,0,2013-09-23 18:53:00
11:53 AM,50.0,46.9,89,29.44,7.0,Variable,5.8,-,0.03,Rain,Light Rain,0,2013-09-23 19:53:00
12:53 PM,51.1,48.0,89,29.47,8.0,Variable,3.5,-,0.05,Rain,Light Rain,0,2013-09-23 20:53:00
1:03 PM,50.0,48.2,94,29.48,7.0,Variable,3.5,-,0.02,Rain,Rain,0,2013-09-23 21:03:00
1:39 PM,51.8,48.2,88,29.49,10.0,Variable,4.6,-,0.07,Rain,Light Rain,0,2013-09-23 21:39:00
1:53 PM,51.1,48.0,89,29.50,10.0,SSW,3.5,-,0.07,Rain,Light Rain,200,2013-09-23 21:53:00
2:53 PM,51.1,46.9,86,29.52,10.0,SSE,5.8,-,0.01,,Overcast,160,2013-09-23 22:53:00
3:53 PM,52.0,46.9,83,29.54,10.0,Variable,3.5,-,0.01,,Scattered Clouds,0,2013-09-23 23:53:00
4:53 PM,52.0,46.0,80,29.56,10.0,Calm,Calm,-,N/A,,Mostly Cloudy,0,2013-09-24 00:53:00
5:53 PM,51.1,45.0,80,29.57,10.0,Calm,Calm,-,N/A,,Clear,0,2013-09-24 01:53:00
6:53 PM,50.0,44.1,80,29.59,10.0,SE,5.8,-,N/A,,Overcast,140,2013-09-24 02:53:00
7:53 PM,48.0,45.0,89,29.61,10.0,Calm,Calm,-,N/A,,Mostly Cloudy,0,2013-09-24 03:53:00
8:53 PM,46.9,45.0,93,29.63,10.0,Calm,Calm,-,N/A,,Overcast,0,2013-09-24 04:53:00
9:53 PM,46.9,45.0,93,29.65,10.0,Calm,Calm,-,N/A,,Clear,0,2013-09-24 05:53:00
10:53 PM,46.0,44.1,93,29.67,10.0,Variable,4.6,-,N/A,,Overcast,0,2013-09-24 06:53:00
11:53 PM,46.0,44.1,93,29.68,10.0,Calm,Calm,-,0.00,,Overcast,0,2013-09-24 07:53:00